Погода во Фримонте

США     37°32′12″N   121°57′38″W
темп.,
°C
ветер,
м/с
пор.,
м/с
влажн.,
%
обл.,
%
осадки,
мм/ч
давл.,
гПа
погр.,
м
19 апреля, пн
пн1923:00+16зюз114651 0.0 102038
02:00+13зюз1161100 0.0 101940
05:00+12зюз1170100 0.0 101922
08:00+12зюз11735 0.0 1020280
11:00+20з12410 0.0 1019592
14:00+22зсз44349 0.0 1018828
17:00+20зсз45369 0.0 1017688
20:00+14з345463 0.0 1018525
20 апреля, вт
вт2023:00+12юз23701 0.0 1018387
02:00+11ю23775 0.0 1017205
05:00+10ююв2481100 0.0 1016144
08:00+12ююв2374100 0.0 1015502
11:00+18ююз12442 0.0 1014805
14:00+19з77450 0.0 1012997
17:00+16з67575 0.0 1012971
20:00+13зюз12725 0.0 1011534
21 апреля, ср
ср2123:00+12ю12770 0.0 1011186
02:00+10ююв24801 0.0 1010183
05:00+10ююв24840 0.0 1010159
08:00+11ююв23740 0.0 1012251
11:00+19зсз12430 0.0 1011702
14:00+23сз33290 0.0 10101081
17:00+21зсз55370 0.0 1009765
20:00+14зсз34610 0.0 1010349
22 апреля, чт
чт2223:00+12ю23710 0.0 1011284
02:00+11ююв12780 0.0 1011201
05:00+10ююв12800 0.0 1012129
08:00+12ююв22690 0.0 1013275
11:00+20з114012 0.0 1013628
14:00+24сз43305 0.0 1011919
17:00+22сз44370 0.0 1011695
20:00+15зсз44610 0.0 1013307
23 апреля, пт
пт2323:00+12зюз12735 0.0 1014271
02:00+11ююз127574 0.0 1014167
05:00+10ю127891 0.0 1014165
08:00+11ююв227119 0.0 1014378
11:00+18зюз12440 0.0 1014846
14:00+23зсз43340 0.0 10131118
17:00+20сз54425 0.0 1013805
20:00+14зсз3460100 0.0 1015428